This demonstration page uses our WeatherBlox Daily Observations layout. Learn more.

Left ArrowRight Arrow

41.12389, -100.76542

Hourly Observations for August 18, 2019

Temp ( °F °C ) Dew Point ( °F °C ) Humidity (%) Winds ( mph kmh ) Pressure ( in mb ) Visibility ( mi km ) Precip ( " mm )
12:53 am 00:53 Clear 67 19.4 62 16.7 84 84 NE 14 22 29.69 1005 10 16 0.00 0.00
1:53 am 01:53 Partly Cloudy 66 18.9 61 16.1 84 84 NE 21 33 29.72 1006 10 16 0.00 0.00
2:07 am 02:07 Mostly Cloudy 66 18.9 61 16.1 84 84 NNE 13 20 29.72 1007 10 16 0.00 0.00
2:53 am 02:53 Partly Cloudy 64 17.8 60 15.6 87 87 NE 14 22 29.72 1007 10 16 0.00 0.00
3:53 am 03:53 Partly Cloudy 63 17.2 58 14.4 84 84 NE 14 22 29.78 1009 10 16 0.00 0.00
4:53 am 04:53 Clear 61 16.1 57 13.9 87 87 N 7 11 29.80 1009 10 16 0.00 0.00
5:53 am 05:53 Clear 59 15 56 13.3 90 90 NNW 7 11 29.85 1011 10 16 0.00 0.00
6:53 am 06:53 Clear 57 13.9 54 12.2 90 90 N 5 7 29.87 1012 10 16 0.00 0.00
7:53 am 07:53 Partly Cloudy 60 15.6 56 13.3 86 86 NW 6 9 29.89 1012 10 16 0.00 0.00
8:53 am 08:53 Cloudy 62 16.7 57 13.9 84 84 NE 8 13 29.93 1013 10 16 0.00 0.00
9:53 am 09:53 Cloudy 63 17.2 56 13.3 78 78 NE 9 15 29.93 1014 10 16 0.00 0.00
10:53 am 10:53 Mostly Cloudy 67 19.4 57 13.9 71 71 ESE 8 13 29.93 1014 10 16 0.00 0.00
11:53 am 11:53 Cloudy 66 18.9 56 13.3 70 70 Calm 29.93 1013 10 16 0.00 0.00
12:53 pm 12:53 Mostly Cloudy 69 20.6 58 14.4 68 68 S 8 13 29.93 1014 10 16 0.00 0.00
1:28 pm 13:28 Mostly Sunny 70 21.1 59 15 68 68 Calm 29.87 1012 10 16 0.00 0.00
1:53 pm 13:53 Mostly Sunny 71 21.7 59 15 66 66 SSE 3 6 29.91 1013 10 16 0.00 0.00
2:53 pm 14:53 Sunny 74 23.3 61 16.1 64 64 Calm 29.90 1013 10 16 0.00 0.00
3:53 pm 15:53 Sunny 76 24.4 61 16.1 60 60 Calm 29.88 1012 10 16 0.00 0.00
4:53 pm 16:53 Partly Cloudy 78 25.6 64 17.8 62 62 VRB 7 11 29.86 1011 10 16 0.00 0.00
5:53 pm 17:53 Sunny 77 25 63 17.2 62 62 SW 8 13 29.86 1011 10 16 0.00 0.00
6:53 pm 18:53 Sunny 76 24.4 63 17.2 64 64 SSW 5 7 29.86 1011 10 16 0.00 0.00
7:53 pm 19:53 Sunny 74 23.3 64 17.8 71 71 SE 7 11 29.86 1011 10 16 0.00 0.00
8:53 pm 20:53 Clear 68 20 64 17.8 87 87 ESE 7 11 29.88 1012 10 16 0.00 0.00
9:53 pm 21:53 Clear 66 18.9 63 17.2 90 90 SE 7 11 29.90 1013 10 16 0.00 0.00
10:53 pm 22:53 Clear 64 17.8 61 16.1 90 90 ESE 7 11 29.91 1013 10 16 0.00 0.00
11:53 pm 23:53 Clear 63 17.2 61 16.1 93 93 ESE 8 13 29.92 1013 10 16 0.00 0.00

Powered by AerisWeather